User: anonymous   Login
Location: Corralito
(10.2667°N, 66.9500°W)
Time: 11:42:22
(UTC+00:00)
Language:

Okean 1-7 - Orbit

View from above orbital plane
View from above orbital plane
View from above satellite
View from above satellite

Ground track
Ground track

The orbit data is extracted from the following two-line orbital elements,

1 23317U 94066A   23267.12445410  .00002428  00000-0  24698-3 0  9990
2 23317  82.5350 122.7239 0019478  21.5855 338.6180 14.90244545566477
Epoch (UTC): 24 September 2023 02:59:12
Eccentricity: 0.0019478
inclination: 82.5350°
perigee height: 583 km
apogee height: 611 km
right ascension of ascending node: 122.7239°
argument of perigee: 21.5855°
revolutions per day: 14.90244545
mean anomaly at epoch: 338.6180°
orbit number at epoch: 56647

The dashed part of the orbit path shows where the satellite is in the earth's shadow,  

DLR